Theta_e
338 341 342 340 344 344 344 342 343 345 347 349 350 353 356 356 355 353 351 350 350 350
335 336 335 335 337 336 336 335 336 337 337 340 341 346 350 350 352 352 352 350 349 349
334 333 332 331 330 330 331 331 331 331 331 332 334 341 342 341 342 344 348 349 352 351
330 330 330 328 329 328 329 329 328 328 328 328 330 332 332 332 333 333 333 337 342 344
328 329 327 327 327 327 327 328 327 327 327 327 328 329 328 327 328 328 328 330 331 335
325 326 325 326 326 326 326 325 326 326 325 326 327 327 326 327 327 328 328 330 330 329
325 325 324 325 325 324 324 322 323 324 325 325 324 322 321 321 325 326 326 326 325 329
325 325 324 324 323 323 322 321 322 322 322 322 322 319 319 319 323 323 324 325 327 329
324 324 322 321 320 320 319 319 319 318 318 318 317 316 317 319 319 319 321 321 323 326
323 321 319 319 319 317 316 317 316 316 316 316 317 315 315 317 317 317 318 318 318 320
320 319 319 319 317 316 315 315 314 314 315 315 314 313 313 315 317 317 317 316 314 314
319 318 318 317 317 316 315 314 314 314 314 314 314 311 312 314 315 315 316 315 315 316
319 317 316 318 317 318 318 316 314 314 314 311 314 310 310 312 313 312 313 317 317 316
321 319 320 320 320 319 318 319 318 318 317 315 313 313 309 309 312 311 311 312 313 313
Wind_Speed
18 4 4 6 5 5 5 6 8 7 7 8 7 6 4 3 3 4 5 7 8 6
11 7 5 5 4 5 6 6 8 7 8 9 8 8 7 4 5 6 5 5 6 6
11 8 6 5 7 7 7 7 7 8 8 8 9 9 8 6 7 8 6 6 7 6
10 9 6 6 8 7 6 6 8 9 9 8 8 9 8 9 8 9 8 8 8 9
10 8 7 7 7 6 8 8 7 7 8 8 8 9 10 10 10 10 10 10 10 11
10 8 7 7 7 7 6 6 8 8 9 9 9 11 11 11 11 10 10 10 10 11
9 8 7 7 7 7 7 8 8 10 9 8 8 9 11 12 12 11 10 10 10 10
5 6 7 8 9 9 10 10 9 8 8 8 7 10 13 12 12 11 12 11 11 11
6 8 9 9 9 10 9 9 8 9 10 10 8 17 18 16 10 10 10 11 12 12
7 8 9 9 8 8 8 8 9 9 10 11 11 17 20 20 10 10 11 11 11 11
7 7 7 7 7 7 6 8 9 11 11 11 11 17 21 20 12 12 12 12 11 11
5 5 5 6 6 6 6 8 8 7 9 10 11 16 19 16 11 13 12 11 11 12
4 5 5 5 5 5 4 5 4 6 6 7 9 12 16 15 9 12 10 11 12 14
3 4 4 4 3 3 4 4 5 5 4 5 6 9 11 13 10 10 10 10 10 10
Wind_Direction
77 16 24 29 20 17 21 16 360 4 7 6 5 356 335 290 274 244 242 247 238 237
92 105 80 50 36 36 23 7 0 359 360 356 354 355 349 353 337 316 288 267 257 246
93 83 69 59 54 45 27 14 7 7 7 360 355 354 356 360 11 343 339 317 297 278
86 81 73 59 48 38 32 17 20 14 7 5 3 9 1 352 353 344 335 332 328 317
82 77 67 58 56 46 35 25 23 17 16 16 13 8 1 355 348 340 334 326 320 313
66 66 65 58 45 42 30 18 21 22 24 18 14 6 3 356 349 340 336 333 320 311
64 59 51 47 41 32 28 24 22 22 19 14 19 8 0 352 335 339 339 340 333 320
71 65 55 47 37 31 26 30 22 20 19 14 16 15 360 347 331 334 332 336 339 338
82 63 51 48 53 50 50 51 47 42 35 30 24 7 0 352 343 342 337 339 337 338
75 75 71 68 58 50 46 50 48 42 36 35 25 8 2 360 7 359 355 346 342 340
77 73 74 66 62 59 52 49 43 39 35 33 31 8 5 0 9 9 2 0 353 347
73 88 91 81 70 52 45 44 40 36 32 28 28 14 12 2 8 6 6 2 1 355
105 94 90 68 53 35 25 31 19 33 32 37 21 24 14 6 12 6 2 9 6 7
115 92 58 42 34 357 344 345 353 348 1 22 27 20 13 14 13 4 5 5 10 1